Find Starlink 35447

NORAD ID: 66589 Int'l Des: 2025-270 Owner: SPXS Country: US Constellation: starlink operational
LEOCIRCULAR

リアルタイム位置

3D地球を読み込み中...

Starlink 35447について

説明を読み込み中...

次回通過

Passes for default location (London). Set your location on the main map for personalized predictions.

高度履歴

Loading altitude history...

軌道要素

1 66589U 25270B 26104.63693086 .00009335 00000-0 34829-3 0 9993
2 66589 42.9996 213.1642 0001590 268.7266 91.3404 15.27581227 23316
Epoch: Apr 14, 2026 • Age: 17 hours

現在のステータス

高度 482.4 km
速度 7.63 km/s
衛星直下点 15.20°N, 107.29°W
打ち上げ日 Nov 22, 2025
運用期間 0.3 years
タイプ internet

技術仕様

分類 Payload
質量 575.00 kg
乾燥質量 530.00 kg
総質量 575.00 kg
長さ 0.30 m
直径 4.10 m
スパン 29.00 m
形状 Box + pan
製造者 SPXS
バスタイプ Starlink V2MO
フェーズステータス In Orbit
所有者/国 SPXS/US

Most Searched